Location: Balaclava NSW 2575, Australia
(34.4510°S, 150.4953°E)
Time: 21:54:05
(UTC+10:00)

XW-2C - Pass Details

Date: 02 August 2021
Orbit: 505 x 524 km, 97.5° (Epoch: 26 September)

Event Time Altitude Azimuth Distance (km) Brightness Sun altitude
Rises 04:28:17 0° 41° (NE) 2,654 ? -29.5°
Reaches altitude 10° 04:30:40 10° 55° (NE) 1,775 ? -29.0°
Maximum altitude 04:33:44 23° 109° (ESE) 1,153 ? -28.4°
Enters shadow 04:36:14 13° 156° (SSE) 1,597 ? -27.9°
